EW1762 Weather Reports


time (UTC)temp
C
wind
direction
speed
KPH
gust
KPH
rain 1hr
cm
rain 24hr
cm
rain mn
cm
humidity
%
barometer
mb
20260507050650 15 327 3.2 20.9 0.05 0.33 0.08 83 1010.0
20260507050150 15 355 3.2 16.1 0.03 0.30 0.03 82 1010.1
20260507045917 15 298 3.2 9.7 0.00 0.28 0.00 80 1009.4
20260507045146 15 70 3.2 14.5 0.00 0.28 0.00 80 1009.4
20260507044647 15 298 3.2 14.5 0.00 0.28 0.00 80 1009.5
20260507044146 15 328 4.8 14.5 0.00 0.28 0.00 80 1009.6
20260507043644 16 326 4.8 16.1 0.00 0.28 0.00 80 1009.3
20260507043415 16 283 3.2 16.1 0.00 0.28 0.00 80 1009.3
20260507042642 16 320 1.6 12.9 0.00 0.28 0.00 80 1009.2
20260507042411 16 355 3.2 16.1 0.00 0.28 0.00 80 1009.2
20260507041640 16 333 1.6 16.1 0.00 0.28 0.00 80 1009.2
20260507041141 16 5 1.6 12.9 0.00 0.28 0.00 80 1009.1
20260507040638 16 0 0.0 9.7 0.00 0.28 0.00 80 1008.9
20260507040411 16 319 1.6 9.7 0.00 0.28 0.00 80 1009.0
20260507035637 16 63 1.6 14.5 0.00 0.28 0.28 79 1009.0
20260507035135 17 311 1.6 14.5 0.00 0.28 0.28 78 1009.1
20260507034633 17 48 1.6 14.5 0.00 0.28 0.28 78 1009.1
20260507034134 17 325 1.6 14.5 0.00 0.28 0.28 78 1009.3
20260507033633 17 336 1.6 14.5 0.00 0.28 0.28 78 1008.9
20260507033403 17 40 3.2 16.1 0.00 0.28 0.28 77 1009.0
20260507032628 17 284 3.2 16.1 0.00 0.28 0.28 77 1008.9
20260507032128 17 355 3.2 20.9 0.00 0.28 0.28 77 1008.9
20260507031631 17 311 3.2 20.9 0.00 0.28 0.28 76 1008.9
20260507031129 17 0 4.8 17.7 0.00 0.28 0.28 77 1008.7
20260507030627 18 323 8.0 22.5 0.00 0.28 0.28 77 1008.6
20260507030127 18 351 6.4 22.5 0.00 0.28 0.28 80 1008.7
20260507025855 18 290 3.2 17.7 0.00 0.28 0.28 82 1008.3
20260507025400 18 5 0.0 8.0 0.00 0.28 0.28 83 1008.2
20260507025125 18 51 0.0 8.0 0.00 0.28 0.28 82 1008.3
20260507024124 18 277 0.0 9.7 0.00 0.28 0.28 83 1008.4
20260507023854 18 276 0.0 9.7 0.00 0.28 0.28 83 1008.2
20260507023124 18 325 1.6 9.7 0.00 0.28 0.28 83 1008.3
20260507022622 18 319 1.6 20.9 0.00 0.28 0.28 87 1008.3
20260507022617 18 263 3.2 20.9 0.00 0.28 0.28 85 1008.2
20260507021852 18 42 0.0 0.0 0.00 0.28 0.28 88 1008.1
20260507021616 18 314 0.0 0.0 0.00 0.28 0.28 88 1008.1
20260507020846 18 298 0.0 0.0 0.00 0.28 0.28 88 1008.1
20260507020117 18 298 0.0 0.0 0.00 0.28 0.28 88 1008.1
20260507015609 18 298 0.0 0.0 0.00 0.28 0.28 88 1008.3
20260507015107 18 298 0.0 0.0 0.00 0.28 0.28 88 1008.3
20260507014605 18 298 0.0 0.0 0.00 0.28 0.28 88 1008.4
20260507014102 18 298 0.0 0.0 0.00 0.28 0.28 87 1008.3
20260507013602 18 298 0.0 0.0 0.00 0.28 0.28 87 1008.5
20260507013101 18 158 0.0 0.0 0.00 0.28 0.28 87 1008.3
20260507012558 18 158 0.0 0.0 0.00 0.28 0.28 87 1008.3
20260507012057 18 158 0.0 0.0 0.00 0.28 0.28 86 1008.2
20260507011557 18 158 0.0 11.3 0.00 0.28 0.28 86 1008.2
20260507011055 18 158 0.0 11.3 0.00 0.28 0.28 86 1008.1
20260507010555 18 175 0.0 0.0 0.00 0.28 0.28 86 1008.2
20260507010048 18 175 0.0 4.8 0.00 0.28 0.28 86 1008.0
20260507005546 18 175 0.0 6.4 0.00 0.28 0.28 86 1008.1
20260507005045 18 175 0.0 6.4 0.00 0.28 0.28 86 1008.1
20260507004544 18 173 0.0 8.0 0.00 0.28 0.28 86 1007.9
20260507004043 18 173 0.0 8.0 0.00 0.28 0.28 86 1007.9
20260507003536 18 173 0.0 3.2 0.00 0.28 0.28 85 1007.8
20260507003033 18 173 0.0 3.2 0.00 0.28 0.28 85 1007.7
20260507002534 18 159 0.0 3.2 0.00 0.28 0.28 85 1007.7
20260507002033 18 159 0.0 3.2 0.00 0.28 0.28 85 1007.7
20260507001534 18 159 0.0 8.0 0.00 0.28 0.28 85 1007.8
20260507001034 18 159 0.0 8.0 0.00 0.28 0.28 85 1007.9
20260507000535 18 159 0.0 0.0 0.00 0.28 0.28 85 1007.8
20260507000032 18 159 0.0 6.4 0.00 0.28 0.28 84 1007.7
20260506235532 18 159 0.0 6.4 0.00 0.28 0.28 84 1007.5
20260506235032 18 159 0.0 8.0 0.00 0.28 0.28 84 1007.5
20260506234531 18 159 0.0 8.0 0.00 0.28 0.28 84 1007.3
20260506234026 18 173 0.0 0.0 0.00 0.28 0.28 84 1007.2
20260506233526 18 173 0.0 3.2 0.00 0.28 0.28 84 1007.2
20260506233025 18 173 0.0 3.2 0.00 0.28 0.28 83 1007.3
20260506232528 19 173 0.0 3.2 0.00 0.28 0.28 83 1007.3
20260506232030 19 173 0.0 0.0 0.00 0.28 0.28 83 1007.3
20260506231801 19 173 0.0 0.0 0.00 0.28 0.28 83 1007.3
20260506231024 19 173 0.0 1.6 0.00 0.28 0.28 83 1007.2
20260506230522 19 173 0.0 1.6 0.00 0.28 0.28 83 1007.3
20260506230022 19 167 0.0 8.0 0.00 0.28 0.28 83 1007.2
20260506225521 19 167 0.0 8.0 0.00 0.28 0.28 82 1007.2
20260506225022 19 178 0.0 6.4 0.00 0.28 0.28 82 1007.3
20260506224524 19 189 0.0 6.4 0.00 0.28 0.28 82 1007.4
20260506224018 19 204 0.0 4.8 0.00 0.28 0.28 82 1007.3
20260506223518 19 158 0.0 6.4 0.00 0.28 0.28 82 1007.2
20260506223017 20 169 0.0 6.4 0.00 0.28 0.28 81 1007.2
20260506222521 20 179 0.0 9.7 0.00 0.28 0.28 81 1007.2
20260506222017 20 177 0.0 9.7 0.00 0.28 0.28 81 1007.2
20260506221750 20 159 0.0 4.8 0.00 0.28 0.28 81 1007.2
20260506221019 20 147 0.0 8.0 0.00 0.28 0.28 80 1007.2
20260506220518 20 246 0.0 8.0 0.00 0.28 0.28 80 1007.3
20260506220016 20 169 1.6 6.4 0.00 0.28 0.28 80 1007.3
20260506215746 20 169 1.6 9.7 0.00 0.28 0.28 81 1007.2
20260506215015 20 169 0.0 9.7 0.00 0.28 0.28 81 1006.9
20260506214514 20 166 0.0 4.8 0.00 0.28 0.28 81 1007.0
20260506214012 19 166 0.0 8.0 0.00 0.28 0.28 81 1007.0
20260506213514 19 166 0.0 11.3 0.00 0.28 0.28 81 1007.0
20260506213009 19 175 1.6 11.3 0.00 0.28 0.28 81 1007.0
20260506212742 19 147 1.6 11.3 0.00 0.28 0.28 81 1006.9
20260506212011 19 155 0.0 11.3 0.00 0.28 0.28 81 1007.0
20260506211509 19 171 0.0 6.4 0.00 0.28 0.28 81 1006.9
20260506211006 19 172 0.0 6.4 0.00 0.28 0.28 80 1006.9
20260506210505 19 175 1.6 9.7 0.00 0.28 0.28 81 1006.9
20260506210232 19 173 1.6 9.7 0.00 0.28 0.28 81 1006.9
20260506205459 19 161 0.0 8.0 0.00 0.28 0.28 81 1006.9
20260506204956 19 203 0.0 6.4 0.00 0.28 0.28 81 1006.9
20260506204454 19 194 0.0 6.4 0.00 0.28 0.28 80 1007.0
20260506203954 20 213 0.0 4.8 0.00 0.28 0.28 80 1007.0
20260506203450 20 195 1.6 9.7 0.00 0.28 0.28 79 1006.9
20260506202949 20 194 1.6 9.7 0.00 0.28 0.28 78 1006.8
20260506202720 20 212 0.0 6.4 0.00 0.28 0.28 78 1006.8
20260506201950 20 230 0.0 4.8 0.00 0.28 0.28 78 1006.7
20260506201448 20 254 0.0 4.8 0.00 0.28 0.28 78 1006.7
20260506200947 20 182 0.0 3.2 0.00 0.28 0.28 78 1006.8
20260506200717 20 193 0.0 6.4 0.00 0.28 0.28 78 1006.8
20260506195941 20 161 1.6 12.9 0.00 0.28 0.28 76 1006.9
20260506195442 20 168 1.6 12.9 0.00 0.28 0.28 76 1006.8
20260506194943 20 207 1.6 14.5 0.00 0.28 0.28 76 1006.8
20260506194442 20 173 3.2 14.5 0.00 0.28 0.28 77 1006.7
20260506193940 20 241 4.8 17.7 0.00 0.28 0.28 76 1006.8
20260506193445 20 240 4.8 17.7 0.00 0.28 0.28 77 1006.8
20260506192940 20 223 3.2 17.7 0.00 0.28 0.28 77 1007.0
20260506192437 20 168 1.6 9.7 0.00 0.28 0.28 78 1007.1
20260506191937 20 196 1.6 11.3 0.00 0.28 0.28 78 1007.1
20260506191707 19 236 1.6 14.5 0.00 0.28 0.28 79 1007.2
20260506190934 19 193 1.6 14.5 0.00 0.28 0.28 80 1007.4
20260506190433 19 174 1.6 11.3 0.00 0.28 0.28 80 1007.5
20260506185932 19 186 1.6 11.3 0.00 0.28 0.28 80 1007.5
20260506185430 19 203 1.6 11.3 0.00 0.28 0.28 81 1007.5
20260506184930 18 205 0.0 11.3 0.00 0.28 0.28 82 1007.6
20260506184430 18 226 1.6 11.3 0.00 0.28 0.28 82 1007.5
20260506183928 18 138 1.6 11.3 0.00 0.28 0.28 82 1007.5
20260506183700 18 223 0.0 4.8 0.00 0.28 0.28 82 1007.5
20260506182924 18 186 1.6 11.3 0.00 0.28 0.28 83 1007.5
20260506182425 18 159 1.6 19.3 0.00 0.28 0.28 83 1007.6
20260506181924 18 186 3.2 19.3 0.00 0.28 0.28 83 1007.7
20260506181424 18 221 1.6 12.9 0.00 0.28 0.28 84 1007.7
20260506180924 18 202 1.6 12.9 0.00 0.28 0.28 85 1007.9
20260506180424 18 249 1.6 11.3 0.00 0.28 0.28 86 1007.8
20260506175925 18 215 1.6 9.7 0.00 0.28 0.28 87 1007.7
20260506175424 17 190 1.6 12.9 0.00 0.28 0.28 86 1007.9
20260506174921 17 172 1.6 12.9 0.00 0.28 0.28 87 1007.9
20260506174420 17 142 1.6 11.3 0.00 0.28 0.28 88 1007.9
20260506173922 17 176 1.6 9.7 0.00 0.28 0.28 88 1008.0
20260506173422 17 164 1.6 11.3 0.00 0.28 0.28 89 1008.0
20260506172920 17 171 3.2 11.3 0.00 0.28 0.28 89 1007.9
20260506172420 17 252 3.2 12.9 0.00 0.28 0.28 89 1007.9
20260506171916 17 105 1.6 12.9 0.00 0.28 0.28 89 1008.0
20260506171416 16 196 1.6 9.7 0.00 0.28 0.28 89 1008.0
20260506170917 16 200 1.6 9.7 0.00 0.28 0.28 89 1008.0
20260506170417 16 175 3.2 12.9 0.00 0.28 0.28 89 1008.1
20260506165918 16 177 4.8 16.1 0.00 0.28 0.28 90 1008.2
20260506165416 16 194 3.2 16.1 0.00 0.28 0.28 90 1008.4
20260506164918 16 179 1.6 14.5 0.00 0.28 0.28 90 1008.2
20260506164411 16 162 1.6 11.3 0.00 0.28 0.28 90 1008.3
20260506163911 16 200 1.6 11.3 0.00 0.28 0.28 90 1008.4
20260506163412 16 221 3.2 12.9 0.00 0.28 0.28 90 1008.3
20260506162911 16 132 4.8 14.5 0.00 0.28 0.28 90 1008.3
20260506162410 16 178 4.8 14.5 0.03 0.28 0.28 89 1008.4
20260506162147 16 188 4.8 16.1 0.05 0.28 0.28 90 1008.5
20260506161909 16 167 4.8 12.9 0.05 0.28 0.28 89 1008.4
20260506160908 16 185 3.2 16.1 0.08 0.28 0.28 90 1008.5
20260506160639 16 165 1.6 11.3 0.10 0.28 0.28 90 1008.6
20260506155905 16 168 3.2 12.9 0.13 0.28 0.28 91 1008.8
20260506155404 16 151 3.2 12.9 0.13 0.28 0.28 90 1008.5
20260506154904 16 163 3.2 12.9 0.13 0.28 0.28 91 1008.5
20260506154406 16 129 3.2 12.9 0.15 0.28 0.28 91 1008.7
20260506154137 16 162 1.6 9.7 0.15 0.28 0.28 91 1008.8
20260506153402 16 163 3.2 16.1 0.15 0.28 0.28 90 1009.1
20260506152857 16 179 4.8 16.1 0.15 0.28 0.28 90 1009.1
20260506152349 16 158 1.6 12.9 0.15 0.25 0.25 90 1009.3
20260506152116 16 177 1.6 17.7 0.13 0.23 0.23 89 1009.3
20260506151616 16 172 3.2 17.7 0.15 0.23 0.23 89 1009.3
20260506150844 16 233 1.6 12.9 0.15 0.20 0.20 89 1009.3
20260506150345 16 177 0.0 9.7 0.13 0.18 0.18 88 1009.4
20260506145844 16 171 0.0 9.7 0.10 0.15 0.15 88 1009.4
20260506145345 16 174 1.6 12.9 0.13 0.15 0.15 88 1009.3
20260506144840 16 169 1.6 12.9 0.13 0.15 0.15 88 1009.3
20260506144341 16 133 1.6 11.3 0.13 0.13 0.13 88 1009.2
20260506144113 16 170 0.0 11.3 0.13 0.13 0.13 88 1009.1
20260506143340 16 166 1.6 11.3 0.13 0.13 0.13 88 1009.2
20260506143120 16 150 1.6 11.3 0.13 0.13 0.13 88 1009.1
20260506142344 16 176 1.6 9.7 0.10 0.10 0.10 88 1009.2
20260506141840 16 151 3.2 11.3 0.10 0.10 0.10 87 1009.1
20260506141336 16 159 3.2 11.3 0.08 0.08 0.08 87 1009.5
20260506140836 16 202 3.2 16.1 0.05 0.05 0.08 86 1009.5
20260506140338 16 155 3.2 17.7 0.05 0.05 0.05 86 1009.6
20260506135837 16 163 3.2 17.7 0.05 0.05 0.05 85 1009.6
20260506135338 17 181 1.6 12.9 0.03 0.03 0.03 84 1009.7
20260506134839 17 170 3.2 14.5 0.03 0.03 0.03 84 1009.5
20260506134336 17 198 3.2 14.5 0.00 0.00 0.00 83 1009.3
20260506133837 17 161 3.2 17.7 0.00 0.00 0.00 82 1009.4
20260506133337 17 213 4.8 19.3 0.00 0.00 0.00 80 1009.5
20260506132836 17 221 3.2 19.3 0.00 0.00 0.00 80 1009.5
20260506132336 17 190 3.2 12.9 0.00 0.00 0.00 79 1009.4
20260506131837 17 157 3.2 12.9 0.00 0.00 0.00 79 1009.2
20260506131337 17 163 3.2 12.9 0.00 0.00 0.00 79 1009.1
20260506130836 17 195 3.2 12.9 0.00 0.00 0.00 80 1009.1
20260506130336 17 175 3.2 12.9 0.00 0.00 0.00 80 1009.1
20260506125834 17 188 3.2 16.1 0.00 0.00 0.00 81 1009.2
20260506125330 17 153 1.6 16.1 0.00 0.00 0.00 82 1009.2
20260506124832 17 144 1.6 9.7 0.00 0.00 0.00 83 1009.2
20260506124334 17 188 3.2 17.7 0.00 0.00 0.00 82 1009.4
20260506124330 17 107 3.2 17.7 0.00 0.00 0.00 82 1009.3
20260506123604 17 173 3.2 14.5 0.00 0.00 0.00 81 1009.5
20260506122831 17 182 3.2 16.1 0.00 0.00 0.00 80 1009.6
20260506122324 17 161 3.2 16.1 0.00 0.00 0.00 80 1009.6
20260506121824 17 188 3.2 17.7 0.00 0.00 0.00 80 1009.5
20260506121323 17 202 4.8 17.7 0.00 0.00 0.00 79 1009.6
20260506120821 17 194 4.8 20.9 0.00 0.00 0.00 79 1009.6
20260506120321 17 228 6.4 20.9 0.00 0.00 0.00 79 1009.4
20260506120053 17 148 4.8 17.7 0.00 0.00 0.00 80 1009.5
20260506115941 17 196 4.8 17.7 0.00 0.00 0.00 79 1009.4
20260506114816 17 169 6.4 17.7 0.00 0.00 0.00 79 1009.0
20260506114316 17 178 8.0 29.0 0.00 0.00 0.00 79 1009.2
20260506113817 17 166 6.4 29.0 0.00 0.00 0.00 80 1009.3
20260506113315 17 167 4.8 14.5 0.00 0.00 0.00 80 1009.2
20260506112816 17 170 4.8 22.5 0.00 0.00 0.00 80 1009.1
20260506112315 17 153 6.4 22.5 0.00 0.00 0.00 79 1009.1
20260506111808 17 167 6.4 20.9 0.00 0.00 0.00 80 1009.0
20260506111309 17 147 6.4 20.9 0.00 0.00 0.00 79 1008.9
20260506110809 17 142 6.4 19.3 0.00 0.00 0.00 79 1008.9
20260506110542 18 197 4.8 16.1 0.00 0.00 0.00 79 1008.9
20260506105809 17 142 4.8 16.1 0.00 0.00 0.00 80 1008.9
20260506105311 17 165 6.4 19.3 0.00 0.00 0.00 80 1008.8
20260506104804 17 137 6.4 19.3 0.00 0.00 0.00 80 1008.9
20260506104305 17 183 6.4 19.3 0.00 0.00 0.00 80 1008.8
20260506104035 17 174 6.4 19.3 0.00 0.00 0.00 80 1008.8
20260506103303 17 159 6.4 22.5 0.00 0.00 0.00 80 1008.7
20260506102803 17 158 6.4 22.5 0.00 0.00 0.00 80 1008.7
20260506102305 17 169 6.4 19.3 0.00 0.00 0.00 80 1008.7
20260506101758 17 160 4.8 22.5 0.00 0.00 0.00 80 1008.9
20260506101258 17 162 4.8 22.5 0.00 0.00 0.00 80 1008.7
20260506100800 17 126 4.8 27.4 0.00 0.00 0.00 80 1008.7
20260506100528 17 180 6.4 27.4 0.00 0.00 0.00 80 1008.7
20260506095757 17 200 6.4 19.3 0.00 0.00 0.00 80 1008.7
20260506095257 17 146 6.4 30.6 0.00 0.00 0.00 80 1008.8
20260506094753 17 172 6.4 30.6 0.00 0.00 0.00 80 1008.7
20260506094253 17 147 6.4 19.3 0.00 0.00 0.00 80 1008.9
20260506094022 17 171 6.4 19.3 0.00 0.00 0.00 80 1008.7
20260506093252 17 180 4.8 17.7 0.00 0.00 0.00 80 1008.7
20260506092751 17 157 4.8 16.1 0.00 0.00 0.00 79 1008.6
20260506092254 17 165 4.8 20.9 0.00 0.00 0.00 79 1008.6
20260506092021 17 182 4.8 20.9 0.00 0.00 0.00 79 1008.7
20260506091521 17 196 3.2 19.3 0.00 0.00 0.00 79 1008.8
20260506090745 17 198 3.2 19.3 0.00 0.00 0.00 79 1008.9
20260506090246 17 163 4.8 19.3 0.00 0.00 0.00 79 1008.9
20260506085745 18 186 4.8 19.3 0.00 0.00 0.00 79 1009.0
20260506085245 18 181 4.8 19.3 0.00 0.00 0.00 78 1008.9
20260506084741 18 171 4.8 16.1 0.00 0.00 0.00 78 1008.9
20260506084241 18 150 4.8 20.9 0.00 0.00 0.00 77 1008.9
20260506083741 18 156 6.4 29.0 0.00 0.00 0.00 77 1008.9
20260506083238 18 178 4.8 29.0 0.00 0.00 0.00 76 1008.8
20260506082740 18 180 6.4 20.9 0.00 0.00 0.00 76 1008.8
20260506082239 18 136 6.4 20.9 0.00 0.00 0.00 75 1008.7
20260506081731 18 217 6.4 17.7 0.00 0.00 0.00 75 1008.7
20260506081507 18 153 6.4 17.7 0.00 0.00 0.00 74 1008.7
20260506081005 18 165 6.4 16.1 0.00 0.00 0.00 74 1008.7
20260506080233 18 198 6.4 19.3 0.00 0.00 0.00 74 1008.8
20260506073227 19 170 6.4 24.1 0.00 0.00 0.00 74 1009.0
20260506072727 19 157 4.8 17.7 0.00 0.00 0.00 74 1009.0
20260506072458 19 281 4.8 25.7 0.00 0.00 0.00 74 1009.0
20260506071721 19 161 6.4 25.7 0.00 0.00 0.00 74 1009.0
20260506071457 19 169 4.8 19.3 0.00 0.00 0.00 74 1009.0
20260506070722 19 183 3.2 16.1 0.00 0.00 0.00 74 1009.1
20260506070455 19 195 4.8 19.3 0.00 0.00 0.00 74 1009.1
20260506062217 19 171 3.2 14.5 0.00 0.00 0.00 74 1009.3
20260506061718 19 228 3.2 14.5 0.00 0.00 0.00 74 1009.3
20260506061220 19 159 3.2 14.5 0.00 0.00 0.00 73 1009.3
20260506060950 19 148 3.2 12.9 0.00 0.00 0.00 73 1009.3
20260506060219 19 186 3.2 16.1 0.00 0.00 0.00 73 1009.3
20260506051210 19 169 1.6 11.3 0.00 0.00 0.00 71 1009.6